Overview Statistics Trail Chart Weather Telemetry Raw packets
 

This is the latest recevied weather packets stored in our database for station/object NC4M. If no packets are shown the sender has not sent any weather packets the latest 10 day(s).

<< 13 14 15 16 17 18 19 >>
Time Temp. Humidity Pressure Rain* Wind** Luminosity Snow
1788471841 37.78° C 37% 1013.4 hPa 0 mm - 437 W/m² -
1788471540 37.78° C 36% 1013.5 hPa 0 mm - 472 W/m² -
1788471235 37.22° C 38% 1013.4 hPa 0 mm - 486 W/m² -
1788470931 37.78° C 37% 1013.4 hPa 0 mm - 132 W/m² -
1788470627 37.78° C 37% 1013.6 hPa 0 mm - 137 W/m² -
1788470327 37.22° C 39% 1013.6 hPa 0 mm - 570 W/m² -
1788470023 37.78° C 36% 1013.6 hPa 0 mm - 66 W/m² -
1788469719 38.33° C 34% 1013.5 hPa 0 mm - 66 W/m² -
1788469419 37.78° C 35% 1013.6 hPa 0 mm - 584 W/m² -
1788469119 37.78° C 35% 1013.7 hPa 0 mm - 95 W/m² -
1788468818 37.78° C 40% 1013.7 hPa 0 mm - 631 W/m² -
1788468513 39.44° C 36% 1013.8 hPa 0 mm - 78 W/m² -
1788468210 38.89° C 35% 1013.9 hPa 0 mm - 674 W/m² -
1788467905 37.78° C 38% 1013.9 hPa 0 mm - 406 W/m² -
1788467601 36.67° C 38% 1013.8 hPa 0 mm - 364 W/m² -
1788467300 36.67° C 41% 1014.1 hPa 0 mm - 158 W/m² -
1788466996 37.22° C 38% 1014.1 hPa 0 mm - 94 W/m² -
1788466695 37.22° C 39% 1014.4 hPa 0 mm - 79 W/m² -
1788466391 36.67° C 39% 1013.9 hPa 0 mm - 714 W/m² -
1788466089 36.67° C 42% 1014.2 hPa 0 mm - 308 W/m² -
1788465785 36.67° C 36% 1014.2 hPa 0 mm - 356 W/m² -
1788465480 37.22° C 36% 1014.3 hPa 0 mm - 456 W/m² -
1788465176 37.22° C 38% 1014.5 hPa 0 mm - 170 W/m² -
1788464871 36.67° C 38% 1014.4 hPa 0 mm - 89 W/m² -
1788464567 36.67° C 39% 1014.6 hPa 0 mm - 296 W/m² -

* Rain latest hour (hover to see other rain measurements)
** Current wind speed in m/s (hover to see current wind gust speed)